This demonstration page uses our WeatherBlox Daily Observations layout. Learn more.

Left ArrowRight Arrow

39.01783, -85.05884

Hourly Observations for April 5, 2018

Temp ( °F °C ) Dew Point ( °F °C ) Humidity (%) Winds ( mph kmh ) Pressure ( in mb ) Visibility ( mi km ) Precip ( " mm )
12:52 am 00:52 Mostly Clear 30 -1.1 18 -7.8 61 61 W 3 6 30.27 1025 10 16 N/A
1:52 am 01:52 Clear 28 -2.2 21 -6.1 75 75 SW 3 6 30.27 1025 10 16 N/A
2:52 am 02:52 Clear 28 -2.2 20 -6.7 72 72 N N/A 30.27 1025 10 16 N/A
3:52 am 03:52 Mostly Clear 26 -3.3 22 -5.6 84 84 N N/A 30.27 1025 10 16 N/A
4:52 am 04:52 Partly Cloudy 29 -1.7 22 -5.6 75 75 SW 3 6 30.27 1025 10 16 N/A
5:52 am 05:52 Clear 28 -2.2 21 -6.1 75 75 SW 5 7 30.27 1025 10 16 N/A
6:52 am 06:52 Clear 27 -2.8 22 -5.6 81 81 SW 5 7 30.27 1025 10 16 N/A
7:52 am 07:52 Sunny 27 -2.8 23 -5 85 85 SW 5 7 30.29 1026 10 16 N/A
8:52 am 08:52 Sunny 31 -0.6 25 -3.9 79 79 SW 3 6 30.30 1026 10 16 N/A
9:52 am 09:52 Sunny 36 2.2 25 -3.9 64 64 W 9 15 30.31 1026 10 16 N/A
10:52 am 10:52 Mostly Sunny 38 3.3 23 -5 55 55 W 7 11 30.30 1026 10 16 N/A
11:52 am 11:52 Mostly Sunny 41 5 21 -6.1 45 45 N 6 9 30.30 1026 10 16 N/A
12:52 pm 12:52 Sunny 43 6.1 22 -5.6 43 43 SW 10 17 30.27 1025 10 16 N/A
1:52 pm 13:52 Mostly Sunny 45 7.2 22 -5.6 40 40 SW 9 15 30.24 1024 10 16 N/A
2:52 pm 14:52 Mostly Cloudy 48 8.9 21 -6.1 34 34 W 7 11 30.21 1023 10 16 N/A
3:52 pm 15:52 Mostly Cloudy 49 9.4 24 -4.4 38 38 ESE 7 11 30.16 1021 10 16 N/A
4:52 pm 16:52 Partly Cloudy 50 10 25 -3.9 38 38 SSW 7 11 30.14 1021 10 16 N/A
5:52 pm 17:52 Mostly Cloudy 50 10 23 -5 35 35 S 8 13 30.10 1019 10 16 N/A
6:52 pm 18:52 Mostly Cloudy 49 9.4 24 -4.4 38 38 S 5 7 30.08 1019 10 16 N/A
7:52 pm 19:52 Cloudy 48 8.9 23 -5 37 37 WSW 5 7 30.07 1018 10 16 N/A
8:52 pm 20:52 Cloudy 42 5.6 26 -3.3 53 53 S 6 9 30.06 1018 10 16 N/A
9:52 pm 21:52 Cloudy 42 5.6 26 -3.3 53 53 S 6 9 30.04 1017 10 16 N/A
10:52 pm 22:52 Cloudy 43 6.1 29 -1.7 58 58 S 7 11 30.02 1017 10 16 N/A
11:52 pm 23:52 Cloudy 44 6.7 27 -2.8 51 51 S 3 6 30.01 1016 10 16 N/A

Powered by AerisWeather